greek

WEATHER INFORMATION

english


LGTT 031230Z 02011G24KT 9999 SCT030 09/01 Q1021 RMK SCT080
TAF LGTT 030700Z 0309/0318 36010KT 9999 FEW020 BKN040 TEMPO 0310/0315 35015G25KT PROB30 TEMPO 0309/0313 5000 RA FEW018TCU BKN030

 Print LGTT local weather
 EMY AVIATION
 EMY LGTT
 Forecast LGTT
 EMY LGMG
 EMY LGEL
 EMY LGTG
 EMY LGAV
 EMY LGAT
 Latest METAR Reports (OGIMET)
 Latest TAF Reports (OGIMET)
 Greece Forecast
 www.windyty.com
 www.meteo.gr
 SAT 24h
 UK Met Office
 www.kifissiameteo.gr
 forecast.uoa.gr
 www.ntua.gr/weather/
 www.autorouter.eu/gramet
 https://www.aviationweather.gov/sigmet/

Call 210-3533689 to get aviation-weather info for Greece.